Weather History for San Jose Tobias Bolanos, Costa Rica

Change the Weather History Date:

Monday, October 22, 2012

  Actual Average Record
Temperature  
Mean Temperature 72 °F -  
Max Temperature 78 °F 77 °F 82 °F (1998)
Min Temperature 66 °F 66 °F 62 °F (2004)
Cooling Degree Days 7    
Growing Degree Days 22 (Base 50)    
Moisture  
Dew Point 68 °F    
Average Humidity 87    
Maximum Humidity 100    
Minimum Humidity 61    
Precipitation  
Precipitation 0.00 in - - ()
Sea Level Pressure  
Sea Level Pressure 29.88 in    
Wind  
Wind Speed 6 mph ()    
Max Wind Speed 15 mph    
Max Gust Speed -    
Visibility 3.5 miles    
Events Fog , Rain , Thunderstorm    
Averages and records for this station are not official NWS values.
T = Trace of Precipitation, MM = Missing Value Source: Averaged Metar Reports

Daily Weather History Graph

Daily Weather History Graph

Search for Another Location

Airport:

Trip Planner

Search our weather history database for the weather conditions in past years. The results will help you decide how hot, cold, wet, or windy it might be!

Date:

Astronomy

Oct. 22, 2012 Rise Set
Actual Time 5:25 AM CST 5:16 PM CST
Civil Twilight 5:04 AM CST 5:37 PM CST
Nautical Twilight 4:39 AM CST 6:02 PM CST
Astronomical Twilight 4:14 AM CST 6:26 PM CST
Moon 12:15 PM CST (10/22) No Moon Set
Length of Visible Light 12h 33m
Length of Day
11h 50m
First Quarter, 57% of the Moon is Illuminated
Oct 22
First Quarter
Oct 29
Full
Nov 6
Last Quarter
Nov 13
New
Nov 20
First Quarter

Hourly Weather History & Observations

Time (CST) Temp. Dew Point Humidity Pressure Visibility Wind Dir Wind Speed Gust Speed Precip Events Conditions
6:00 AM 66.2 °F 66.2 °F 100% 29.91 in 0.1 mi SSW 3.5 mph - N/A Fog Fog
7:00 AM 66.2 °F 66.2 °F 100% 29.92 in 1.2 mi Variable 2.3 mph - N/A   Scattered Clouds
7:20 AM 68.0 °F 66.2 °F 94% 29.92 in 3.1 mi ENE 5.8 mph - N/A   Mostly Cloudy
8:00 AM 73.4 °F 64.4 °F 73% 29.92 in 6.2 mi East 5.8 mph - N/A   Mostly Cloudy
9:00 AM 77.0 °F 62.6 °F 61% 29.92 in 6.2 mi ESE 6.9 mph - N/A   Mostly Cloudy
9:30 AM 78.8 °F 68.0 °F 69% 29.94 in 6.2 mi SW 8.1 mph - N/A   Mostly Cloudy
10:00 AM 75.2 °F 68.0 °F 78% 29.93 in 6.2 mi West 11.5 mph - N/A   Mostly Cloudy
11:00 AM 77.0 °F 68.0 °F 74% 29.90 in 5.0 mi West 11.5 mph - N/A Fog Fog
12:00 PM 77.0 °F 68.0 °F 74% 29.87 in 5.0 mi West 11.5 mph - N/A Fog Fog
1:00 PM 77.0 °F 68.0 °F 74% 29.84 in 3.7 mi West 15.0 mph - N/A Rain , Thunderstorm Rain Showers
1:48 PM 71.6 °F 64.4 °F 78% 29.83 in 3.7 mi West 11.5 mph - N/A Rain , Thunderstorm Rain Showers
2:00 PM 69.8 °F 66.2 °F 88% 29.83 in 2.5 mi WNW 6.9 mph - N/A Rain , Thunderstorm Rain Showers
2:38 PM 69.8 °F 69.8 °F 100% 29.83 in 1.9 mi West 5.8 mph - N/A Rain , Thunderstorm Thunderstorms and Rain
3:00 PM 69.8 °F 69.8 °F 100% 29.83 in 2.2 mi WNW 5.8 mph - N/A Rain , Thunderstorm Rain Showers
4:00 PM 69.8 °F 69.8 °F 100% 29.84 in 2.5 mi WNW 6.9 mph - N/A Rain Rain
4:17 PM 71.6 °F 69.8 °F 94% 29.84 in 3.1 mi WNW 5.8 mph - N/A Rain Rain
5:00 PM 69.8 °F 69.8 °F 100% 29.85 in 3.1 mi NNW 2.3 mph - N/A Rain Rain
5:06 PM 69.8 °F 69.8 °F 100% 29.85 in 2.5 mi South 3.5 mph - N/A Rain Rain
6:00 PM 69.8 °F 69.8 °F 100% 29.87 in 2.5 mi ENE 6.9 mph - N/A Rain Rain